TimeMDT,TemperatureF,Dew PointF,Humidity,Sea Level PressureIn,VisibilityMPH,Wind Direction,Wind SpeedMPH,Gust SpeedMPH,PrecipitationIn,Events,Conditions,WindDirDegrees,DateUTC
12:53 AM,37.0,26.1,65,30.08,10.0,WSW,17.3,-,N/A,,Overcast,240,2013-10-22 06:53:00
1:53 AM,36.0,25.0,64,30.08,10.0,WSW,12.7,-,N/A,,Scattered Clouds,240,2013-10-22 07:53:00
2:53 AM,33.1,25.0,72,30.09,10.0,WSW,10.4,-,N/A,,Clear,240,2013-10-22 08:53:00
3:53 AM,33.1,25.0,72,30.09,10.0,NW,5.8,-,N/A,,Clear,310,2013-10-22 09:53:00
4:53 AM,37.0,24.1,59,30.09,10.0,WNW,13.8,-,N/A,,Clear,290,2013-10-22 10:53:00
5:53 AM,32.0,24.1,73,30.16,10.0,NE,4.6,-,N/A,,Clear,50,2013-10-22 11:53:00
6:53 AM,30.0,24.1,79,30.20,10.0,NE,3.5,-,N/A,,Clear,50,2013-10-22 12:53:00
7:53 AM,30.0,24.1,79,30.22,10.0,ENE,5.8,-,N/A,,Clear,60,2013-10-22 13:53:00
8:53 AM,37.9,28.0,68,30.19,10.0,ENE,3.5,-,N/A,,Clear,70,2013-10-22 14:53:00
9:53 AM,42.1,28.0,58,30.17,10.0,Calm,Calm,-,N/A,,Clear,0,2013-10-22 15:53:00
10:53 AM,48.0,28.0,46,30.13,10.0,NNW,5.8,-,N/A,,Clear,340,2013-10-22 16:53:00
11:53 AM,50.0,30.0,46,30.12,10.0,North,5.8,-,N/A,,Clear,10,2013-10-22 17:53:00
12:53 PM,52.0,28.9,41,30.09,10.0,North,12.7,-,N/A,,Clear,350,2013-10-22 18:53:00
1:53 PM,54.0,30.0,40,30.07,10.0,NNW,12.7,-,N/A,,Clear,330,2013-10-22 19:53:00
2:53 PM,55.9,28.9,36,30.05,10.0,WNW,18.4,23.0,N/A,,Clear,290,2013-10-22 20:53:00
3:53 PM,57.9,25.0,28,30.03,10.0,NW,18.4,-,N/A,,Clear,310,2013-10-22 21:53:00
4:53 PM,55.9,28.0,34,30.02,10.0,NW,15.0,-,N/A,,Clear,310,2013-10-22 22:53:00
5:53 PM,50.0,27.0,41,30.09,10.0,WNW,13.8,-,N/A,,Clear,290,2013-10-22 23:53:00
6:53 PM,45.0,27.0,49,30.13,10.0,West,11.5,-,N/A,,Clear,280,2013-10-23 00:53:00
7:53 PM,37.9,27.0,65,30.18,10.0,West,8.1,-,N/A,,Clear,260,2013-10-23 01:53:00
8:53 PM,37.9,26.1,62,30.14,10.0,WSW,8.1,-,N/A,,Clear,240,2013-10-23 02:53:00
9:53 PM,35.1,27.0,72,30.14,10.0,SE,8.1,-,N/A,,Clear,140,2013-10-23 03:53:00
10:53 PM,32.0,26.1,79,30.12,10.0,South,4.6,-,N/A,,Clear,180,2013-10-23 04:53:00
11:53 PM,30.9,25.0,79,30.10,10.0,South,6.9,-,N/A,,Clear,190,2013-10-23 05:53:00